Location: Radomski Observatory
(40.2854°N, 79.5145°W)
Time: 06:52:27
(UTC-05:00)

Amateur Radio Satellites - All Passes

Search period start: 08 December 2016 06:22
Search period end: 09 December 2016 06:22
Location: Radomski Observatory, 40.2854°N, 79.5145°W

Satellite Date Start Highest point End Downlink Frequencies (MHz)
Time Altitude Azimuth
YUBILEINY 08 Dec 06:29:12 06:38:04 87° 265° (W) 06:46:56 435.215
CUTE-I 08 Dec 06:42:07 06:47:28 79° 103° (ESE) 06:52:47 437.470
CINEMA 3 08 Dec 06:45:10 06:48:25 18° 91° (E) 06:51:33 145.822/145.860
RS-15 08 Dec 06:47:17 06:58:33 57° 111° (ESE) 07:10:20 29.354- 29.394
AIST 2 08 Dec 06:53:14 06:56:25 22° 112° (ESE) 06:59:39 435.215
Cosmos 2491 08 Dec 06:56:37 07:05:22 77° 94° (E) 07:14:07 435.465 / 435.565
NOAA 15 08 Dec 06:57:28 07:02:44 69° 286° (WNW) 07:07:59 137.62
Cubesat XI-IV 08 Dec 07:08:56 07:14:12 61° 288° (WNW) 07:19:25 437.490
LilacSat-2 08 Dec 07:10:25 07:13:48 32° 288° (WNW) 07:17:09 437.200
NOAA 18 08 Dec 07:10:39 07:16:13 86° 105° (ESE) 07:21:44 137.9125
AIST 1 08 Dec 07:15:59 07:20:17 52° 266° (W) 07:24:32
DOVE 4 08 Dec 07:19:35 07:24:41 51° 288° (WNW) 07:29:37 437.250
GOMX 1 08 Dec 07:21:26 07:25:48 25° 294° (WNW) 07:30:08 467.674
HO-68 08 Dec 07:23:13 07:29:42 35° 97° (E) 07:36:09 435.675
STRAND 1 08 Dec 07:39:54 07:44:26 31° 263° (W) 07:49:00 437.568
CUTE 1.7 + AOD 2 08 Dec 07:48:09 07:52:16 49° 99° (E) 07:56:21 437.475
AAUSAT CUBESAT 2 08 Dec 08:00:50 08:04:10 23° 95° (E) 08:07:29 437.432
Cosmos 2504 08 Dec 08:05:14 08:13:21 45° 273° (W) 08:21:01 435.465 / 435.565
CANX-2 08 Dec 08:06:36 08:10:50 85° 286° (WNW) 08:15:03 2200.000
FUNcube-1 08 Dec 08:09:14 08:09:55 10° 89° (E) 08:10:36 145.935
PRISM 08 Dec 08:09:41 08:13:25 36° 71° (ENE) 08:17:11 437.425
TIGRISAT 08 Dec 08:21:13 08:22:58 12° 62° (ENE) 08:24:43 435.000
CINEMA 3 08 Dec 08:21:15 08:25:47 43° 288° (WNW) 08:30:05 145.822/145.860
ANTELSAT 08 Dec 08:22:49 08:25:02 13° 63° (ENE) 08:27:12 437.575/2403.000
CUBEBUG 2 08 Dec 08:23:09 08:27:23 47° 99° (E) 08:31:27 437.445
CUTE-I 08 Dec 08:24:09 08:26:49 14° 300° (WNW) 08:29:28 437.470
SEEDS 08 Dec 08:27:02 08:31:14 86° 283° (WNW) 08:35:27 437.485
YUBILEINY 08 Dec 08:28:33 08:33:30 17° 283° (WNW) 08:38:27 435.215
AIST 2 08 Dec 08:30:57 08:34:42 33° 309° (NW) 08:38:31 435.215
COMPASS 1 08 Dec 08:32:53 08:37:02 73° 101° (E) 08:41:12 437.405
Oscar 11 08 Dec 08:34:29 08:37:48 21° 94° (E) 08:41:06 145.826/435.025
CUSAT 1 08 Dec 08:43:55 08:46:11 19° 96° (E) 08:48:16 437.405
NOAA 18 08 Dec 08:53:26 08:56:05 14° 302° (WNW) 08:58:44 137.9125
AO-85 08 Dec 08:55:31 08:55:50 10° 38° (NE) 08:56:08 145.980
Cosmos 2491 08 Dec 08:56:36 09:03:08 23° 295° (WNW) 09:09:42 435.465 / 435.565
RS-15 08 Dec 08:59:59 09:11:20 49° 316° (NW) 09:23:12 29.354- 29.394
UWE-3 08 Dec 09:00:29 09:04:46 81° 100° (E) 09:08:57 435.000/436.395/437.385
HO-68 08 Dec 09:10:44 09:17:29 45° 294° (WNW) 09:24:13 435.675
UNISAT 6 08 Dec 09:25:13 09:29:49 58° 74° (ENE) 09:34:22 437.425
CUTE 1.7 + AOD 2 08 Dec 09:25:25 09:27:40 14° 295° (WNW) 09:29:56 437.475
AAUSAT CUBESAT 2 08 Dec 09:36:04 09:39:36 27° 290° (WNW) 09:43:07 437.432
ZACube-1 08 Dec 09:36:08 09:40:19 65° 285° (WNW) 09:44:25 437.345
FUNcube-1 08 Dec 09:42:25 09:46:34 60° 286° (WNW) 09:50:38 145.935
QB50P2 08 Dec 09:43:50 09:44:09 10° 62° (ENE) 09:44:26 145.880/145.840
JAS-2 08 Dec 09:44:36 09:49:28 25° 66° (ENE) 09:53:57 435.910
PRISM 08 Dec 09:46:13 09:48:50 17° 267° (W) 09:51:29 437.425
DANDE 08 Dec 09:51:45 09:56:02 44° 98° (E) 09:59:20 436.750
TIGRISAT 08 Dec 09:54:20 09:59:01 75° 257° (WSW) 10:03:41 435.000
QB50P1 08 Dec 09:54:47 09:56:43 13° 63° (ENE) 09:58:39 145.935-145.965
DUCHIFAT 1 08 Dec 09:55:34 09:56:43 11° 62° (ENE) 09:57:53 145.980
ANTELSAT 08 Dec 09:56:30 10:01:10 67° 259° (WSW) 10:05:47 437.575/2403.000
CUBEBUG 2 08 Dec 10:01:03 10:03:33 15° 296° (WNW) 10:06:01 437.445
Oscar 11 08 Dec 10:10:09 10:13:58 31° 290° (WNW) 10:17:46 145.826/435.025
DELFI C3 08 Dec 10:12:42 10:16:41 78° 283° (WNW) 10:20:40 145.870
POPSAT HIP 1 08 Dec 10:15:06 10:18:19 21° 67° (ENE) 10:21:31 437.405
AO-85 08 Dec 10:32:59 10:36:57 83° 58° (ENE) 10:40:48 145.980
PCSat 08 Dec 10:40:39 10:45:45 45° 112° (ESE) 10:50:54 145.827
BUGSAT 1 08 Dec 10:41:14 10:43:23 14° 64° (ENE) 10:45:31 437.445
HUMSAT D 08 Dec 10:42:08 10:46:12 71° 284° (WNW) 10:50:15 437.325/437.525
Cosmos 2499 08 Dec 10:57:00 11:04:56 40° 72° (ENE) 11:12:18 435.465 / 435.565
ESTCUBE 1 08 Dec 11:00:27 11:04:06 24° 95° (E) 11:07:43 437.505/2401.250
UNISAT 6 08 Dec 11:04:26 11:06:50 14° 269° (W) 11:09:14 437.425
NANOSAT C BR1 08 Dec 11:06:40 11:10:55 74° 75° (ENE) 11:15:12 145.865
GONETS M04 08 Dec 11:07:06 11:15:19 43° 74° (ENE) 11:23:30
QB50P2 08 Dec 11:15:01 11:19:18 77° 259° (WSW) 11:23:36 145.880/145.840
POLYITAN 1 08 Dec 11:15:27 11:19:45 81° 256° (WSW) 11:24:04 437.675
CUBEBUG 1 08 Dec 11:15:56 11:19:18 21° 94° (E) 11:22:38 437.445
RS-15 08 Dec 11:19:00 11:28:04 23° 348° (NNW) 11:37:15 29.354- 29.394
DUCHIFAT 1 08 Dec 11:27:34 11:31:48 69° 258° (WSW) 11:36:04 145.980
QB50P1 08 Dec 11:27:46 11:31:58 58° 259° (W) 11:36:13 145.935-145.965
JAS-2 08 Dec 11:28:05 11:34:19 50° 260° (W) 11:39:52 435.910
VELOX 1 08 Dec 11:33:16 11:36:41 21° 94° (E) 11:40:04 145.980
DX 1 08 Dec 11:39:26 11:41:15 12° 91° (E) 11:43:05 434.975-435.025
SPROUT 08 Dec 11:47:39 11:50:48 20° 94° (E) 11:53:56 437.525
POPSAT HIP 1 08 Dec 11:49:58 11:53:52 33° 263° (W) 11:57:46 437.405
BEESAT 3 08 Dec 11:51:26 11:51:49 10° 39° (NE) 11:52:11 437.485
50 SAT 08 Dec 12:12:52 12:16:19 47° 100° (E) 12:19:47 437.505
BUGSAT 1 08 Dec 12:14:07 12:18:15 54° 260° (W) 12:22:27 437.445
Oscar 19 08 Dec 12:17:20 12:22:01 38° 69° (ENE) 12:26:45 437.125/150
PCSat 08 Dec 12:24:44 12:29:19 27° 310° (NW) 12:33:56 145.827
BEESAT 2 08 Dec 12:25:27 12:26:31 11° 40° (NE) 12:27:35 435.950
AISAT 08 Dec 12:32:03 12:36:33 82° 285° (WNW) 12:41:01 437.250
Gurwin Techsat 1B 08 Dec 12:34:18 12:38:48 29° 67° (ENE) 12:43:19 435.225
ESTCUBE 1 08 Dec 12:36:54 12:40:54 32° 290° (WNW) 12:44:54 437.505/2401.250
AO-7 08 Dec 12:49:41 12:54:06 16° 47° (NE) 12:58:33 29.400- 29.500
Cosmos 2499 08 Dec 12:50:13 12:58:02 42° 273° (W) 13:05:18 435.465 / 435.565
CUBEBUG 1 08 Dec 12:51:36 12:55:39 35° 289° (WNW) 12:59:39 437.445
ITAMSAT 1 08 Dec 12:55:59 12:56:40 10° 57° (ENE) 12:57:21 435.822/435.867
TISAT 1 08 Dec 13:00:20 13:03:26 20° 94° (E) 13:06:30 437.305
GONETS M04 08 Dec 13:04:06 13:12:01 41° 273° (W) 13:19:58
VELOX 1 08 Dec 13:09:08 13:13:11 35° 290° (WNW) 13:17:14 145.980
DX 1 08 Dec 13:13:28 13:17:47 58° 287° (WNW) 13:22:05 434.975-435.025
UKube-1 08 Dec 13:15:21 13:19:42 74° 285° (WNW) 13:24:01 .
SPROUT 08 Dec 13:22:55 13:26:48 34° 289° (WNW) 13:30:39 437.525
BEESAT 3 08 Dec 13:26:07 13:30:07 79° 58° (ENE) 13:34:05 437.485
RS-15 08 Dec 13:36:29 13:46:32 27° 24° (NNE) 13:56:26 29.354- 29.394
50 SAT 08 Dec 13:48:22 13:49:11 11° 295° (WNW) 13:49:59 437.505
M-CUBED/EXP-1 PRIME 08 Dec 13:51:37 13:53:20 12° 94° (E) 13:55:03 437.505
Oscar 19 08 Dec 13:57:14 14:01:24 25° 265° (W) 14:05:38 437.125/150
BEESAT 2 08 Dec 14:00:54 14:04:57 84° 58° (ENE) 14:08:59 435.950
SWISSCUBE 08 Dec 14:08:29 14:12:21 24° 95° (E) 14:16:12 437.505
BEESAT 08 Dec 14:12:16 14:16:06 24° 95° (E) 14:19:55 436.000
Gurwin Techsat 1B 08 Dec 14:13:46 14:18:36 35° 263° (W) 14:23:28 435.225
ITAMSAT 1 08 Dec 14:30:02 14:35:15 79° 74° (ENE) 14:40:29 435.822/435.867
TISAT 1 08 Dec 14:35:20 14:39:07 33° 290° (WNW) 14:42:53 437.305
AO-7 08 Dec 14:37:10 14:45:21 68° 68° (ENE) 14:53:37 29.400- 29.500
ITUPSAT 1 08 Dec 14:41:11 14:45:46 46° 99° (E) 14:50:20 437.325
MOZHAYETS 4 08 Dec 14:55:17 14:58:07 16° 92° (E) 15:00:56
ISS 08 Dec 15:00:24 15:03:26 35° 136° (SE) 15:06:29 145.825
AUBIESAT-1 08 Dec 15:09:02 15:13:36 68° 106° (ESE) 15:17:54 437.475
AIST 2 08 Dec 15:14:46 15:17:30 16° 44° (NE) 15:20:13 435.215
O/OREOS (USA 219) 08 Dec 15:19:48 15:24:11 48° 107° (ESE) 15:28:34 437.305
M-CUBED/EXP-1 PRIME 08 Dec 15:23:37 15:28:16 69° 291° (WNW) 15:32:40 437.505
SWISSCUBE 08 Dec 15:45:54 15:50:09 34° 291° (WNW) 15:54:24 437.505
BEESAT 08 Dec 15:49:37 15:53:55 34° 291° (WNW) 15:58:11 436.000
RS-15 08 Dec 15:49:38 16:02:01 68° 53° (NE) 16:13:57 29.354- 29.394
BRITE-PL 08 Dec 15:51:40 15:55:10 24° 66° (ENE) 15:58:52 437.365/2234.400
ITAMSAT 1 08 Dec 16:13:23 16:15:16 12° 270° (W) 16:17:10 435.822/435.867
ITUPSAT 1 08 Dec 16:19:56 16:23:14 19° 296° (WNW) 16:26:32 437.325
CUTE-I 08 Dec 16:26:04 16:29:19 17° 61° (ENE) 16:32:34 437.470
MOZHAYETS 4 08 Dec 16:31:08 16:35:31 47° 288° (WNW) 16:39:52
AO-7 08 Dec 16:32:08 16:38:41 26° 266° (W) 16:45:19 29.400- 29.500
ISS 08 Dec 16:37:02 16:39:58 29° 333° (NNW) 16:42:55 145.825
NOAA 15 08 Dec 16:38:51 16:42:53 23° 64° (ENE) 16:46:56 137.62
STARS 08 Dec 16:39:32 16:43:40 38° 98° (E) 16:47:46 437.465
KKS-1 08 Dec 16:41:05 16:45:36 89° 115° (ESE) 16:50:03 437.445
CUBESAT XI-V 08 Dec 16:41:18 16:45:28 31° 96° (E) 16:49:37 437.345
AUBIESAT-1 08 Dec 16:45:04 16:47:22 14° 303° (WNW) 16:49:37 437.475
DOVE 4 08 Dec 16:48:01 16:51:20 18° 63° (ENE) 16:54:45 437.250
GOMX 1 08 Dec 16:50:23 16:54:43 41° 71° (ENE) 16:59:23 467.674
Cubesat XI-IV 08 Dec 16:51:29 16:55:55 27° 66° (ENE) 17:00:24 437.490
AIST 2 08 Dec 16:52:10 16:56:21 60° 241° (WSW) 17:00:30 435.215
HORYU 2 08 Dec 16:52:27 16:56:57 88° 75° (ENE) 17:01:27 437.375
NOAA 18 08 Dec 16:57:43 17:01:50 22° 62° (ENE) 17:05:57 137.9125
O/OREOS (USA 219) 08 Dec 17:00:44 17:03:51 18° 304° (NW) 17:06:58 437.305
Cosmos 2491 08 Dec 17:08:01 17:15:56 37° 72° (ENE) 17:23:48 435.465 / 435.565
BRITE-PL 08 Dec 17:29:40 17:33:30 31° 265° (W) 17:37:36 437.365/2234.400
YUBILEINY 08 Dec 17:35:43 17:41:52 22° 80° (E) 17:48:03 435.215
CINEMA 3 08 Dec 17:45:59 17:49:20 18° 64° (ENE) 17:52:43 145.822/145.860
LilacSat-2 08 Dec 17:50:58 17:54:49 75° 259° (WSW) 17:58:40 437.200
HO-68 08 Dec 17:52:09 17:57:47 26° 59° (ENE) 18:03:27 435.675
RS-15 08 Dec 18:03:02 18:13:43 37° 255° (WSW) 18:24:06 29.354- 29.394
CUTE-I 08 Dec 18:03:26 18:08:46 68° 258° (WSW) 18:14:08 437.470
ISS 08 Dec 18:15:49 18:17:18 12° 353° (N) 18:18:47 145.825
STARS 08 Dec 18:16:34 18:19:44 20° 294° (WNW) 18:22:53 437.465
NOAA 15 08 Dec 18:17:22 18:22:21 44° 261° (W) 18:27:22 137.62
CUBESAT XI-V 08 Dec 18:18:51 18:22:42 26° 292° (WNW) 18:26:33 437.345
DOVE 4 08 Dec 18:23:47 18:28:30 54° 261° (W) 18:33:32 437.250
GOMX 1 08 Dec 18:29:37 18:33:01 20° 269° (W) 18:36:37 467.674
Cubesat XI-IV 08 Dec 18:30:48 18:35:48 39° 262° (W) 18:40:49 437.490
NOAA 18 08 Dec 18:36:40 18:42:04 53° 259° (W) 18:47:31 137.9125
CUTE 1.7 + AOD 2 08 Dec 18:40:18 18:44:02 32° 71° (ENE) 18:47:48 437.475
Cosmos 2504 08 Dec 18:49:10 18:56:23 33° 84° (E) 19:03:55 435.465 / 435.565
AAUSAT CUBESAT 2 08 Dec 18:51:27 18:53:48 15° 65° (ENE) 18:56:09 437.432
CANX-2 08 Dec 18:58:28 19:02:36 61° 75° (ENE) 19:06:46 2200.000
SO-50 08 Dec 19:02:55 19:07:20 38° 115° (ESE) 19:11:43 436.795
Cosmos 2491 08 Dec 19:04:42 19:12:53 48° 272° (W) 19:21:04 435.465 / 435.565
CUSAT 1 08 Dec 19:13:37 19:16:31 18° 76° (ENE) 19:19:55 437.405
SEEDS 08 Dec 19:17:50 19:21:55 58° 75° (ENE) 19:26:01 437.485
CUBEBUG 2 08 Dec 19:20:00 19:24:24 40° 72° (ENE) 19:28:48 437.445
CINEMA 3 08 Dec 19:21:09 19:25:59 54° 261° (W) 19:30:55 145.822/145.860
COMPASS 1 08 Dec 19:22:51 19:26:45 43° 73° (ENE) 19:30:40 437.405
PCSat 08 Dec 19:28:55 19:33:51 34° 52° (NE) 19:38:45 145.827
YUBILEINY 08 Dec 19:28:58 19:37:39 75° 278° (W) 19:46:27 435.215
Oscar 11 08 Dec 19:29:24 19:32:06 17° 66° (ENE) 19:34:50 145.826/435.025
HO-68 08 Dec 19:37:52 19:44:56 64° 257° (WSW) 19:52:05 435.675
AIST 1 08 Dec 19:44:10 19:48:29 88° 286° (WNW) 19:52:51
STRAND 1 08 Dec 19:50:05 19:55:13 89° 283° (WNW) 20:00:18 437.568
ISS 08 Dec 19:52:57 19:54:54 15° 13° (NNE) 19:56:50 145.825
UWE-3 08 Dec 19:56:05 20:00:40 61° 75° (ENE) 20:05:12 435.000/436.395/437.385
CUTE 1.7 + AOD 2 08 Dec 20:16:49 20:19:55 20° 266° (W) 20:23:03 437.475
AAUSAT CUBESAT 2 08 Dec 20:24:58 20:28:53 44° 261° (W) 20:32:50 437.432
DANDE 08 Dec 20:28:30 20:30:54 21° 78° (ENE) 20:33:44 436.750
ZACube-1 08 Dec 20:30:31 20:35:05 88° 74° (ENE) 20:39:34 437.345
FUNcube-1 08 Dec 20:36:30 20:41:02 87° 259° (W) 20:45:31 145.935
CANX-2 08 Dec 20:38:03 20:38:50 10° 270° (W) 20:39:37 2200.000
Cosmos 2504 08 Dec 20:41:07 20:49:18 54° 283° (WNW) 20:57:57 435.465 / 435.565
SO-50 08 Dec 20:43:50 20:47:53 27° 312° (NW) 20:51:55 436.795
CUSAT 1 08 Dec 20:54:36 20:58:18 35° 263° (W) 21:03:01 437.405
SEEDS 08 Dec 20:56:57 20:57:58 11° 270° (W) 20:58:59 437.485
DELFI C3 08 Dec 20:57:30 21:01:18 52° 74° (ENE) 21:05:08 145.870
CUBEBUG 2 08 Dec 20:57:33 21:01:07 21° 267° (W) 21:04:40 437.445
COMPASS 1 08 Dec 21:00:15 21:02:30 14° 268° (W) 21:04:46 437.405
Oscar 11 08 Dec 21:03:47 21:07:53 44° 261° (W) 21:12:01 145.826/435.025
PCSat 08 Dec 21:12:20 21:17:13 34° 250° (WSW) 21:22:03 145.827
UNISAT 6 08 Dec 21:19:51 21:21:20 12° 90° (E) 21:22:50 437.425
PRISM 08 Dec 21:26:11 21:30:20 66° 102° (ESE) 21:34:28 437.425
ISS 08 Dec 21:28:47 21:32:02 48° 33° (NNE) 21:35:14 145.825
YUBILEINY 08 Dec 21:31:39 21:36:08 15° 301° (WNW) 21:40:38 435.215
STRAND 1 08 Dec 21:32:04 21:33:35 11° 301° (WNW) 21:35:07 437.568
HUMSAT D 08 Dec 21:32:15 21:36:27 71° 75° (ENE) 21:40:35 437.325/437.525
UWE-3 08 Dec 21:35:21 21:37:28 13° 270° (W) 21:39:33 435.000/436.395/437.385
TIGRISAT 08 Dec 21:47:15 21:50:40 22° 94° (E) 21:54:02 435.000
ANTELSAT 08 Dec 21:49:22 21:52:59 25° 95° (E) 21:56:32 437.575/2403.000
ESTCUBE 1 08 Dec 21:59:48 22:03:09 21° 66° (ENE) 22:06:30 437.505/2401.250
DANDE 08 Dec 22:11:44 22:13:28 14° 265° (W) 22:15:24 436.750
CUBEBUG 1 08 Dec 22:11:56 22:14:45 17° 65° (ENE) 22:17:36 437.445
VELOX 1 08 Dec 22:30:26 22:33:29 19° 65° (ENE) 22:36:33 145.980
DELFI C3 08 Dec 22:35:31 22:36:25 11° 270° (W) 22:37:19 145.870
DX 1 08 Dec 22:35:33 22:36:46 11° 61° (ENE) 22:37:59 434.975-435.025
JAS-2 08 Dec 22:38:12 22:41:44 18° 93° (E) 22:45:25 435.910
SPROUT 08 Dec 22:41:18 22:43:48 15° 65° (ENE) 22:46:18 437.525
50 SAT 08 Dec 22:48:21 22:50:48 18° 68° (ENE) 22:53:16 437.505
NANOSAT C BR1 08 Dec 22:53:35 22:55:14 12° 91° (E) 22:56:52 145.865
UNISAT 6 08 Dec 22:54:09 22:58:28 58° 286° (WNW) 23:02:40 437.425
QB50P2 08 Dec 23:01:25 23:04:18 18° 93° (E) 23:07:10 145.880/145.840
POLYITAN 1 08 Dec 23:01:59 23:04:43 17° 93° (E) 23:07:26 437.675
PRISM 08 Dec 23:03:52 23:05:04 11° 298° (WNW) 23:06:14 437.425
ISS 08 Dec 23:05:55 23:08:16 18° 228° (SW) 23:10:37 145.825
DUCHIFAT 1 08 Dec 23:13:00 23:15:59 19° 94° (E) 23:18:57 145.980
QB50P1 08 Dec 23:13:30 23:16:51 22° 95° (E) 23:20:10 145.935-145.965
TIGRISAT 08 Dec 23:23:34 23:27:23 30° 291° (WNW) 23:31:07 435.000
ANTELSAT 08 Dec 23:25:58 23:29:39 27° 291° (WNW) 23:33:15 437.575/2403.000
AISAT 08 Dec 23:28:24 23:32:50 82° 76° (ENE) 23:37:19 437.250
Cosmos 2499 08 Dec 23:32:07 23:39:34 34° 84° (E) 23:47:11 435.465 / 435.565
POPSAT HIP 1 08 Dec 23:34:52 23:38:51 38° 98° (E) 23:42:46 437.405
ESTCUBE 1 08 Dec 23:35:35 23:39:42 36° 262° (W) 23:43:51 437.505/2401.250
PHONESAT 2.4 08 Dec 23:37:56 23:40:28 41° 161° (SSE) 23:43:00 2401.200-2431.200
CUBEBUG 1 08 Dec 23:46:30 23:50:40 44° 261° (W) 23:54:53 437.445
TISAT 1 08 Dec 23:52:08 23:54:33 15° 64° (ENE) 23:56:59 437.305
BUGSAT 1 08 Dec 23:57:01 00:00:16 22° 94° (E) 00:03:28 437.445
VELOX 1 09 Dec 00:05:27 00:09:37 41° 261° (W) 00:13:50 145.980
GONETS M04 09 Dec 00:07:21 00:15:36 50° 89° (E) 00:23:52
DX 1 09 Dec 00:08:00 00:12:19 72° 257° (WSW) 00:16:42 434.975-435.025
UKube-1 09 Dec 00:08:53 00:13:12 86° 74° (ENE) 00:17:32 .
SPROUT 09 Dec 00:15:09 00:19:18 48° 261° (W) 00:23:30 437.525
50 SAT 09 Dec 00:21:01 00:23:55 24° 264° (W) 00:26:52 437.505
JAS-2 09 Dec 00:22:05 00:27:08 52° 288° (WNW) 00:32:29 435.910
NANOSAT C BR1 09 Dec 00:27:08 00:31:16 54° 286° (WNW) 00:35:21 145.865
Oscar 19 09 Dec 00:30:51 00:33:22 13° 90° (E) 00:35:53 437.125/150
QB50P2 09 Dec 00:36:19 00:40:13 37° 289° (WNW) 00:44:06 145.880/145.840
M-CUBED/EXP-1 PRIME 09 Dec 00:36:35 00:38:57 15° 57° (ENE) 00:41:23 437.505
POLYITAN 1 09 Dec 00:36:44 00:40:40 39° 289° (WNW) 00:44:34 437.675
AO-85 09 Dec 00:46:16 00:50:41 33° 115° (ESE) 00:54:51 145.980
DUCHIFAT 1 09 Dec 00:47:56 00:51:45 34° 289° (WNW) 00:55:32 145.980
QB50P1 09 Dec 00:48:56 00:52:36 29° 291° (WNW) 00:56:15 145.935-145.965
Gurwin Techsat 1B 09 Dec 00:53:19 00:54:34 11° 89° (E) 00:55:48 435.225
POPSAT HIP 1 09 Dec 01:11:27 01:14:19 18° 294° (WNW) 01:17:10 437.405
PHONESAT 2.4 09 Dec 01:12:56 01:15:35 84° 355° (N) 01:18:14 2401.200-2431.200
SWISSCUBE 09 Dec 01:14:25 01:18:25 28° 67° (ENE) 01:22:26 437.505
BEESAT 09 Dec 01:18:09 01:22:07 27° 67° (ENE) 01:26:06 436.000
Cosmos 2499 09 Dec 01:23:51 01:32:14 54° 283° (WNW) 01:40:57 435.465 / 435.565
TISAT 1 09 Dec 01:25:40 01:29:46 48° 260° (W) 01:33:55 437.305
O/OREOS (USA 219) 09 Dec 01:30:10 01:34:40 85° 68° (ENE) 01:39:07 437.305
BUGSAT 1 09 Dec 01:32:00 01:35:38 29° 290° (WNW) 01:39:12 437.445
ITUPSAT 1 09 Dec 01:47:12 01:51:50 51° 72° (ENE) 01:56:28 437.325
AUBIESAT-1 09 Dec 01:53:33 01:57:44 75° 69° (ENE) 02:02:13 437.475
MOZHAYETS 4 09 Dec 01:57:09 01:59:51 16° 64° (ENE) 02:02:33
GONETS M04 09 Dec 02:04:52 02:12:38 35° 289° (WNW) 02:20:25
Oscar 19 09 Dec 02:07:59 02:13:10 70° 286° (WNW) 02:18:20 437.125/150
M-CUBED/EXP-1 PRIME 09 Dec 02:08:43 02:12:49 60° 255° (WSW) 02:17:16 437.505
AO-85 09 Dec 02:26:48 02:31:07 31° 310° (NW) 02:35:09 145.980
Gurwin Techsat 1B 09 Dec 02:29:48 02:35:09 86° 284° (WNW) 02:40:28 435.225
AO-7 09 Dec 02:40:35 02:46:42 22° 93° (E) 02:52:47 29.400- 29.500
ITAMSAT 1 09 Dec 02:43:53 02:48:20 28° 96° (E) 02:52:44 435.822/435.867
PHONESAT 2.4 09 Dec 02:48:09 02:50:46 61° 195° (SSW) 02:53:22 2401.200-2431.200
SWISSCUBE 09 Dec 02:51:54 02:56:06 30° 263° (W) 03:00:19 437.505
BEESAT 09 Dec 02:55:32 02:59:46 31° 263° (W) 03:04:01 436.000
BEESAT 3 09 Dec 03:17:30 03:19:32 14° 109° (ESE) 03:21:36 437.485
Cosmos 2499 09 Dec 03:26:57 03:27:41 10° 306° (NW) 03:28:26 435.465 / 435.565
ITUPSAT 1 09 Dec 03:26:58 03:29:56 16° 268° (W) 03:32:54 437.325
MOZHAYETS 4 09 Dec 03:32:04 03:36:33 53° 260° (W) 03:41:03
SO-50 09 Dec 03:34:47 03:38:49 30° 49° (NE) 03:42:46 436.795
STARS 09 Dec 03:35:31 03:39:28 32° 69° (ENE) 03:43:26 437.465
KKS-1 09 Dec 03:38:11 03:42:39 77° 75° (ENE) 03:47:09 437.445
CUBESAT XI-V 09 Dec 03:44:12 03:48:07 29° 69° (ENE) 03:52:04 437.345
BEESAT 2 09 Dec 03:53:22 03:55:46 16° 110° (ESE) 03:58:10 435.950
BRITE-PL 09 Dec 03:58:29 03:59:29 10° 87° (E) 04:00:28 437.365/2234.400
Gurwin Techsat 1B 09 Dec 04:12:30 04:14:15 12° 302° (WNW) 04:16:01 435.225
ITAMSAT 1 09 Dec 04:23:09 04:27:47 34° 292° (WNW) 04:32:24 435.822/435.867
PHONESAT 2.4 09 Dec 04:24:01 04:25:38 15° 209° (SSW) 04:27:13 2401.200-2431.200
AO-7 09 Dec 04:31:49 04:40:13 78° 290° (WNW) 04:48:34 29.400- 29.500
HORYU 2 09 Dec 04:45:00 04:47:52 17° 93° (E) 04:50:43 437.375
Cosmos 2504 09 Dec 04:45:15 04:47:34 11° 55° (NE) 04:49:50 435.465 / 435.565
BEESAT 3 09 Dec 04:52:59 04:56:44 47° 306° (NW) 05:00:34 437.485
GOMX 1 09 Dec 04:53:29 04:56:46 16° 89° (E) 05:00:02 467.674
STARS 09 Dec 05:12:22 05:15:50 22° 265° (W) 05:19:20 437.465
SO-50 09 Dec 05:15:17 05:19:13 30° 246° (WSW) 05:23:05 436.795
CUBESAT XI-V 09 Dec 05:21:34 05:25:26 27° 265° (W) 05:29:20 437.345
LilacSat-2 09 Dec 05:26:46 05:28:06 12° 91° (E) 05:29:26 437.200
STRAND 1 09 Dec 05:28:55 05:31:52 16° 62° (ENE) 05:34:50 437.568
BEESAT 2 09 Dec 05:29:25 05:33:11 43° 306° (NW) 05:37:01 435.950
BRITE-PL 09 Dec 05:33:01 05:38:34 83° 101° (E) 05:44:17 437.365/2234.400
YUBILEINY 09 Dec 05:39:47 05:48:25 55° 77° (ENE) 05:57:01 435.215
AIST 1 09 Dec 05:52:16 05:55:42 22° 73° (ENE) 05:59:06
